• In Russia
  • List of Countries
  • For 7 days
  • Water Temperature
  • Satellite Maps
  • Weather Map
  • Weather Widgets
  • user-avatar
    Login

    Hourly Weather La Rioja

    Today, 19 October, Thursday

    Time Temperature Precipitation Wind Pressure Humidity
    00:00 +26°C° 0 mm 5 mps 716 mmHg 36%
    01:00 +25°C° 0 mm 4 mps 716 mmHg 38%
    02:00 +24°C° 0 mm 3 mps 717 mmHg 39%
    03:00 +23°C° 0 mm 2 mps 717 mmHg 40%
    04:00 +21°C° 0 mm 2 mps 717 mmHg 41%
    05:00 +21°C° 0 mm 2 mps 718 mmHg 42%
    06:00 +21°C° 0 mm 2 mps 718 mmHg 39%
    07:00 +23°C° 0 mm 2 mps 718 mmHg 36%
    08:00 +24°C° 0 mm 2 mps 719 mmHg 33%
    09:00 +25°C° 0 mm 2 mps 718 mmHg 29%
    10:00 +26°C° 0 mm 3 mps 718 mmHg 26%
    11:00 +28°C° 0 mm 3 mps 717 mmHg 22%
    12:00 +29°C° 0 mm 4 mps 716 mmHg 21%
    13:00 +30°C° 0 mm 4 mps 715 mmHg 19%
    14:00 +32°C° 0 mm 5 mps 714 mmHg 18%
    15:00 +33°C° 0 mm 5 mps 713 mmHg 18%
    16:00 +33°C° 0 mm 5 mps 712 mmHg 19%
    17:00 +33°C° 0 mm 6 mps 712 mmHg 20%
    18:00 +32°C° 0 mm 5 mps 712 mmHg 22%
    19:00 +29°C° 0 mm 5 mps 712 mmHg 23%
    20:00 +28°C° 0 mm 4 mps 712 mmHg 25%
    21:00 +27°C° 0 mm 3 mps 712 mmHg 26%
    22:00 +26°C° 0 mm 3 mps 712 mmHg 27%
    23:00 +25°C° 0 mm 3 mps 712 mmHg 28%

    Tomorrow, 20 October, Friday

    Time Temperature Precipitation Wind Pressure Humidity
    00:00 +24°C° 0 mm 3 mps 711 mmHg 29%
    01:00 +24°C° 0 mm 3 mps 710 mmHg 30%
    02:00 +22°C° 0 mm 3 mps 710 mmHg 31%
    03:00 +21°C° 0 mm 3 mps 709 mmHg 34%
    04:00 +21°C° 0 mm 2 mps 709 mmHg 37%
    05:00 +20°C° 0 mm 2 mps 709 mmHg 40%
    06:00 +21°C° 0 mm 2 mps 709 mmHg 39%
    07:00 +23°C° 0 mm 2 mps 709 mmHg 38%
    08:00 +25°C° 0 mm 2 mps 710 mmHg 37%
    09:00 +27°C° 0 mm 2 mps 710 mmHg 33%
    10:00 +28°C° 0 mm 2 mps 709 mmHg 28%
    11:00 +30°C° 0 mm 2 mps 709 mmHg 24%
    12:00 +33°C° 0 mm 3 mps 709 mmHg 22%
    13:00 +34°C° 0 mm 4 mps 708 mmHg 20%
    14:00 +35°C° 0 mm 4 mps 708 mmHg 18%
    15:00 +35°C° 0 mm 4 mps 707 mmHg 18%
    16:00 +35°C° 0 mm 5 mps 707 mmHg 18%
    17:00 +35°C° 0 mm 5 mps 707 mmHg 18%
    18:00 +33°C° 0 mm 4 mps 708 mmHg 23%
    19:00 +32°C° 0 mm 4 mps 709 mmHg 27%
    20:00 +29°C° 0 mm 3 mps 711 mmHg 32%
    21:00 +28°C° 0 mm 4 mps 712 mmHg 34%
    22:00 +28°C° 0 mm 5 mps 713 mmHg 35%
    23:00 +27°C° 0 mm 6 mps 714 mmHg 37%

    Day after tomorrow, 21 October, Saturday

    Time Temperature Precipitation Wind Pressure Humidity
    00:00 +26°C° 0 mm 6 mps 714 mmHg 36%
    01:00 +23°C° 0 mm 6 mps 714 mmHg 35%
    02:00 +22°C° 0 mm 6 mps 714 mmHg 34%
    03:00 +21°C° 0 mm 5 mps 715 mmHg 34%
    04:00 +21°C° 0 mm 5 mps 715 mmHg 33%
    05:00 +20°C° 0 mm 4 mps 715 mmHg 33%
    06:00 +20°C° 0 mm 4 mps 716 mmHg 31%
    07:00 +20°C° 0 mm 4 mps 717 mmHg 29%
    08:00 +21°C° 0 mm 5 mps 717 mmHg 26%
    09:00 +22°C° 0 mm 5 mps 718 mmHg 25%
    10:00 +23°C° 0 mm 4 mps 718 mmHg 23%
    11:00 +26°C° 0 mm 4 mps 718 mmHg 21%
    12:00 +27°C° 0 mm 4 mps 718 mmHg 21%
    13:00 +27°C° 0 mm 5 mps 717 mmHg 20%
    14:00 +28°C° 0 mm 5 mps 717 mmHg 19%
    15:00 +28°C° 0 mm 5 mps 717 mmHg 20%
    16:00 +28°C° 0 mm 5 mps 717 mmHg 20%
    17:00 +28°C° 0 mm 5 mps 717 mmHg 21%
    18:00 +27°C° 0 mm 4 mps 718 mmHg 26%
    19:00 +25°C° 0 mm 3 mps 719 mmHg 30%
    20:00 +24°C° 0 mm 3 mps 720 mmHg 35%
    21:00 +23°C° 0 mm 2 mps 720 mmHg 38%
    22:00 +21°C° 0 mm 2 mps 721 mmHg 41%
    23:00 +22°C° 0 mm 1 mps 721 mmHg 44%

    22 October, Sunday

    Time Temperature Precipitation Wind Pressure Humidity
    00:00 +21°C° 0 mm 1 mps 721 mmHg 45%
    01:00 +19°C° 0 mm 2 mps 721 mmHg 46%
    02:00 +18°C° 0 mm 2 mps 721 mmHg 48%
    03:00 +18°C° 0 mm 2 mps 721 mmHg 49%
    04:00 +17°C° 0 mm 2 mps 720 mmHg 50%
    05:00 +16°C° 0 mm 2 mps 720 mmHg 51%
    06:00 +17°C° 0 mm 2 mps 721 mmHg 48%
    07:00 +18°C° 0 mm 2 mps 721 mmHg 44%
    08:00 +19°C° 0 mm 2 mps 721 mmHg 40%
    09:00 +21°C° 0 mm 3 mps 720 mmHg 37%
    10:00 +24°C° 0 mm 3 mps 720 mmHg 34%
    11:00 +25°C° 0 mm 4 mps 719 mmHg 30%
    12:00 +26°C° 0 mm 4 mps 718 mmHg 28%
    13:00 +27°C° 0 mm 4 mps 717 mmHg 25%
    14:00 +28°C° 0 mm 5 mps 716 mmHg 23%
    15:00 +28°C° 0 mm 5 mps 715 mmHg 23%
    16:00 +28°C° 0 mm 5 mps 715 mmHg 23%
    17:00 +28°C° 0 mm 5 mps 714 mmHg 23%
    18:00 +27°C° 0 mm 5 mps 714 mmHg 26%
    19:00 +26°C° 0 mm 4 mps 715 mmHg 28%
    20:00 +24°C° 0 mm 3 mps 715 mmHg 31%
    21:00 +22°C° 0 mm 3 mps 715 mmHg 34%
    22:00 +21°C° 0 mm 2 mps 715 mmHg 36%
    23:00 +21°C° 0 mm 2 mps 715 mmHg 39%

    23 October, Monday

    Time Temperature Precipitation Wind Pressure Humidity
    00:00 +20°C° 0 mm 2 mps 714 mmHg 40%
    01:00 +20°C° 0 mm 2 mps 714 mmHg 42%
    02:00 +19°C° 0 mm 2 mps 713 mmHg 43%
    03:00 +19°C° 0 mm 2 mps 713 mmHg 45%
    04:00 +18°C° 0 mm 2 mps 713 mmHg 46%
    05:00 +18°C° 0 mm 2 mps 713 mmHg 47%
    06:00 +19°C° 0 mm 2 mps 713 mmHg 43%
    07:00 +20°C° 0 mm 2 mps 713 mmHg 39%
    08:00 +21°C° 0 mm 2 mps 713 mmHg 34%
    09:00 +24°C° 0 mm 2 mps 713 mmHg 31%
    10:00 +26°C° 0 mm 3 mps 713 mmHg 27%
    11:00 +28°C° 0 mm 3 mps 712 mmHg 23%
    12:00 +29°C° 0 mm 3 mps 711 mmHg 21%
    13:00 +32°C° 0 mm 4 mps 711 mmHg 19%
    14:00 +33°C° 0 mm 4 mps 710 mmHg 18%
    15:00 +33°C° 0 mm 4 mps 709 mmHg 17%
    16:00 +33°C° 0 mm 4 mps 709 mmHg 17%
    17:00 +34°C° 0 mm 4 mps 709 mmHg 17%
    18:00 +32°C° 0 mm 4 mps 709 mmHg 21%
    19:00 +29°C° 0 mm 4 mps 709 mmHg 24%
    20:00 +27°C° 0 mm 3 mps 710 mmHg 28%
    21:00 +26°C° 0 mm 3 mps 710 mmHg 31%
    22:00 +25°C° 0 mm 2 mps 710 mmHg 34%
    23:00 +24°C° 0 mm 2 mps 710 mmHg 37%

    24 October, Tuesday

    Time Temperature Precipitation Wind Pressure Humidity
    00:00 +24°C° 0 mm 2 mps 710 mmHg 38%
    01:00 +23°C° 0 mm 2 mps 709 mmHg 40%
    02:00 +23°C° 0 mm 2 mps 709 mmHg 41%
    03:00 +21°C° 0 mm 2 mps 709 mmHg 42%
    04:00 +20°C° 0 mm 2 mps 709 mmHg 44%
    05:00 +19°C° 0 mm 2 mps 709 mmHg 45%
    06:00 +21°C° 0 mm 2 mps 709 mmHg 40%
    07:00 +24°C° 0 mm 3 mps 710 mmHg 35%
    08:00 +25°C° 0 mm 3 mps 710 mmHg 30%
    09:00 +27°C° 0 mm 3 mps 710 mmHg 26%
    10:00 +29°C° 0 mm 3 mps 710 mmHg 23%
    11:00 +32°C° 0 mm 4 mps 710 mmHg 19%
    12:00 +33°C° 0 mm 4 mps 709 mmHg 18%
    13:00 +34°C° 0 mm 4 mps 709 mmHg 16%
    14:00 +35°C° 0 mm 4 mps 708 mmHg 15%
    15:00 +35°C° 0 mm 4 mps 708 mmHg 14%
    16:00 +35°C° 0 mm 4 mps 708 mmHg 14%
    17:00 +35°C° 0 mm 4 mps 708 mmHg 14%
    18:00 +33°C° 0 mm 4 mps 708 mmHg 16%
    19:00 +31°C° 0 mm 3 mps 709 mmHg 18%
    20:00 +29°C° 0 mm 2 mps 710 mmHg 20%
    21:00 +28°C° 0 mm 2 mps 710 mmHg 22%
    22:00 +27°C° 0 mm 2 mps 711 mmHg 24%
    23:00 +26°C° 0 mm 2 mps 711 mmHg 26%
    Show more